Regional Weather Roundup
Issued by NWS

Home | Current Version | Previous Version | Text Only | Print | Product List | Glossary On
Versions: 1 2 3 4 5 6 7 8 9 10 11 12 13 14 15 16 17 18 19 20 21 22 23 24 25 26 27 28 29 30 31 32 33 34 35 36 37 38 39 40 41 42 43 44 45 46 47 48 49 50
000
ASUS43 KLSX 271007
RWRMO

WEATHER SUMMARY FOR MISSOURI
NATIONAL WEATHER SERVICE SPRINGFIELD MO
500 AM CDT WED MAY 27 2015

NOTE: "FAIR" INDICATES FEW OR NO CLOUDS BELOW 12,000 FEET WITH NO
       SIGNIFICANT WEATHER AND/OR OBSTRUCTIONS TO VISIBILITY.
       CURRENT SKY AND/OR WEATHER CONDITIONS ARE NOT AVAILABLE FOR
       CHILLICOTHE AND FARMINGTON.

MOZ001>031-035>038-043-044-053-054-271100-
...NORTHERN AND WESTERN MISSOURI...

CITY           SKY/WX    TMP DP  RH WIND       PRES   REMARKS
KANSAS CTY INT PTCLDY    59  54  83 W6        30.01R
KANSAS C DTWN  MOCLDY    63  56  78 SW7       30.01R
LEE`S SUMMIT   PTCLDY    62  57  83 W5        30.02R
ST JOSEPH      CLEAR     59  53  80 CALM      30.00R
CHILLICOTHE      N/A     59  58  96 CALM      29.99R
KIRKSVILLE     PTCLDY    61  59  93 W3        29.98R

$$
MOZ066>068-077>081-088>096-101>105-271100-
...SOUTHWEST MISSOURI...

CITY           SKY/WX    TMP DP  RH WIND       PRES   REMARKS
SPRINGFIELD    CLOUDY    65  62  90 NE8       30.04R
JOPLIN         MOCLDY    66  64  93 SW5       30.03R

$$
MOZ032>034-039>042-045>050-055>058-069>072-271100-
...CENTRAL MISSOURI...

CITY           SKY/WX    TMP DP  RH WIND       PRES   REMARKS
COLUMBIA       MOCLDY    65  62  90 SW7       30.00R
JEFFERSON CITY CLOUDY    67  61  81 SW5       30.00R
ROLLA          RAIN      61  59  93 SW13      30.00F
SEDALIA        MOCLDY    66  62  87 W8        30.01R
WHITEMAN AFB   PTCLDY    64  61  92 W6        30.01R
WARRENSBURG    CLEAR     63  59  88 S3        30.01R

$$
MOZ051-052-059>065-271100-
...EAST CENTRAL MISSOURI...

CITY           SKY/WX    TMP DP  RH WIND       PRES   REMARKS
ST LOUIS INTL  MOCLDY    71  62  73 SW12      30.00R
SPIRIT OF STL  CLOUDY   N/A N/A N/A SW6       29.99R
ST CHARLES     MOCLDY    66  62  87 CALM      29.99R

$$
MOZ072>076-082>087-097>100-106>115-271100-
...SOUTH CENTRAL AND SOUTHEAST MISSOURI...

CITY           SKY/WX    TMP DP  RH WIND       PRES   REMARKS
CAPE GIRARDEAU PTCLDY    65  63  93 CALM      30.04R
FARMINGTON     MOCLDY    64  63  94 S8        30.07R
POPLAR BLUFF   PTCLDY    64  62  93 CALM      30.03F
WEST PLAINS    CLOUDY    66  63  90 SE6       30.04R

$$



USA.gov is the U.S. government's official web portal to all federal, state and local government web resources and services.